Погода в Лэшани

Китай     29°34′19″N   103°43′56″E
темп.,
°C
ветер,
м/с
пор.,
м/с
влажн.,
%
обл.,
%
осадки,
мм/ч
давл.,
гПа
погр.,
м
17 мая, вт
вт1723:00+17ююв117772 0.0 101613
02:00+16ююв1180100 0.0 101514
05:00+16ююв1181100 0.0 101411
08:00+18ююз0178100 0.0 1015110
11:00+18с1179100 0.0 1015196
14:00+17ссв1286100 0.7 1015204
17:00+16сз1191100 0.4 1014131
20:00+16ссз1194100 0.6 101535
18 мая, ср
ср1823:00+15с1194100 0.1 101738
02:00+15ююв0094100 0.2 101526
05:00+15в0093100 0.0 101321
08:00+15ссз1193100 0.0 101445
11:00+16ссз1289100 0.0 1015286
14:00+17ссз1385100 0.0 1014443
17:00+17сз1286100 0.0 1014319
20:00+16зюз0091100 0.0 101514
19 мая, чт
чт1923:00+16ююз1190100 0.0 101713
02:00+16ю0091100 0.0 101613
05:00+15юв1191100 0.0 101512
08:00+15ююв1191100 0.1 101626
11:00+17в1187100 0.0 1016169
14:00+18св1180100 0.0 1014378
17:00+17с1187100 0.0 1012115
20:00+16зсз0089100 0.0 101413
20 мая, пт
пт2023:00+16ююз008974 0.0 101511
02:00+16ююв119288 0.0 101313
05:00+16юв1194100 0.0 101229
08:00+18юв118599 0.0 1014197
11:00+24вюв126298 0.0 1013789
14:00+27вюв224961 0.0 10101368
17:00+27вюв224827 0.0 10071523
20:00+22вюв227498 0.0 100828
21 мая, сб
сб2123:00+20ююз018088 0.0 101011
02:00+19юз1185100 0.0 100911
05:00+19ю1187100 0.0 100813
08:00+21вюв1180100 0.0 1010144
11:00+27вюв115991 0.0 1009887
14:00+30вюв124583 0.0 10061814
17:00+30юв224273 0.0 10042051
20:00+24св237371 0.0 100686